This is the latest recevied weather packets stored in our database for station/object N9CQS-15. If no packets are shown the sender has not sent any weather packets the latest 10 day(s).
| Time | Temp. | Humidity | Pressure | Rain* | Wind** | Luminosity | Snow |
|---|---|---|---|---|---|---|---|
| 1777529342 | 5.56° C | 84% | 1018.8 hPa | 0.51 mm | - | - | - |
| 1777528742 | 6.11° C | 83% | 1018.8 hPa | 0.51 mm | - | - | - |
| 1777528141 | 6.11° C | 83% | 1018.6 hPa | 0.51 mm | - | - | - |
| 1777527542 | 6.67° C | 81% | 1018.6 hPa | 0.51 mm | - | - | - |
| 1777526942 | 6.67° C | 80% | 1018.6 hPa | 0.51 mm | - | - | - |
| 1777526342 | 7.22° C | 79% | 1018.6 hPa | 0.51 mm | - | - | - |
| 1777525742 | 7.22° C | 78% | 1018.5 hPa | 0.51 mm | - | - | - |
| 1777525142 | 7.78° C | 77% | 1018.5 hPa | 0.51 mm | - | - | - |
| 1777524542 | 7.78° C | 75% | 1018.4 hPa | 0.51 mm | - | - | - |
| 1777523942 | 8.33° C | 73% | 1018.4 hPa | 0.51 mm | - | - | - |
| 1777523342 | 8.33° C | 71% | 1018.3 hPa | 0.51 mm | - | - | - |
| 1777522741 | 8.33° C | 68% | 1018.2 hPa | 0.51 mm | - | - | - |
| 1777522142 | 8.89° C | 66% | 1018.1 hPa | 0.51 mm | - | - | - |
| 1777521542 | 8.89° C | 65% | 1018.1 hPa | 0.51 mm | - | - | - |
| 1777520941 | 9.44° C | 64% | 1018 hPa | 0.51 mm | - | - | - |
| 1777520342 | 9.44° C | 63% | 1018 hPa | 0.51 mm | - | - | - |
| 1777519741 | 9.44° C | 63% | 1018 hPa | 0.51 mm | - | - | - |
| 1777519141 | 10° C | 62% | 1017.8 hPa | 0.51 mm | - | - | - |
| 1777518542 | 10° C | 61% | 1017.8 hPa | 0.51 mm | - | - | - |
| 1777517942 | 10° C | 62% | 1017.8 hPa | 0.51 mm | - | - | - |
| 1777517341 | 10.56° C | 61% | 1017.7 hPa | 0.51 mm | - | - | - |
| 1777516742 | 10.56° C | 59% | 1017.5 hPa | 0.51 mm | - | - | - |
| 1777516141 | 10.56° C | 58% | 1017.4 hPa | 0.51 mm | - | - | - |
| 1777515541 | 11.11° C | 57% | 1017.1 hPa | 0.51 mm | - | - | - |
| 1777514942 | 11.11° C | 56% | 1017.1 hPa | 0.51 mm | - | - | - |
* Rain latest 24 hours (hover to see other rain measurements)
** Current wind speed in m/s (hover to see current wind gust speed)